Regional Weather Roundup
Issued by NWS

Home | Current Version | Previous Version | Text Only | Print | Product List | Glossary Off
Versions: 1 2 3 4 5 6 7 8 9 10 11 12 13 14 15 16 17 18 19 20 21 22 23 24 25 26 27 28 29 30 31 32 33 34 35 36 37 38 39 40 41 42 43 44 45 46 47 48 49 50

000
ASUS43 KMPX 010310
RWRMN
WEATHER ROUNDUP FOR MINNESOTA
NATIONAL WEATHER SERVICE TWIN CITIES/CHANHASSEN MN
1000 PM CDT FRI SEP 30 2016


NOTE: "FAIR" INDICATES FEW OR NO CLOUDS BELOW 12,000 FEET WITH NO
SIGNIFICANT WEATHER AND/OR OBSTRUCTIONS TO VISIBILITY. N/A MEANS
CURRENT SKY AND/OR WEATHER CONDITIONS ARE NOT AVAILABLE.

MNZ060>063-068>070-010400-
   Twin Cities Metro

CITY           SKY/WX    TMP DP  RH WIND       PRES   REMARKS
TWIN CITIES    MOCLDY    63  51  65 NE9       30.21S
ST PAUL        CLOUDY    62  52  69 NE9       30.21F
CRYSTAL        CLEAR     59  50  72 NE6       30.21S
BLAINE         CLEAR     59  54  82 N6        30.22S
LAKEVILLE      CLOUDY    63  52  67 N3        30.20S
EDEN PRAIRIE   CLEAR     60  52  74 N6        30.20S
LAKEVILLE      CLOUDY    63  52  67 N3        30.20S
SOUTH ST PAUL  MOCLDY    63  51  66 N5        30.20S
LAKE ELMO      FAIR      59  54  82 N7        30.22S
$$
MNZ001>005-007-008-013>017-022>024-027-028-010400-
   Northwest Minnesota

CITY           SKY/WX    TMP DP  RH WIND       PRES   REMARKS
BEMIDJI        CLEAR     48  48 100 SE5       30.25S
HALLOCK        PTCLDY    59  54  82 SE14      30.18S
ROSEAU         PTCLDY    54  48  82 SE6       30.24S
WARROAD        PTCLDY    52  48  87 SE7       30.26S
THIEF RVR FALL MOCLDY    55  51  86 SE12      30.23F
CROOKSTON      CLOUDY    55  52  88 SE9       30.21S
FOSSTON        CLOUDY    48  45  87 CALM      30.24S
DETROIT LAKES  PTCLDY    55  48  76 SE7       30.24S
MOORHEAD       PTCLDY    57  48  72 SE6       30.20S
PARK RAPIDS    CLEAR     54  46  74 E5        30.25S
MAHNOMEN       FAIR      52  47  84 E3        30.22S
$$
MNZ006-009>011-018-025>026-010400-
   North Central Minnesota

CITY           SKY/WX    TMP DP  RH WIND       PRES   REMARKS
BAUDETTE       PTCLDY    50  49  96 E8        30.27F
FLAG ISLAND    CLOUDY    54  52  94 SE10      30.25S
INTL FALLS     CLOUDY    44  43  96 CALM      30.28F
WASKISH        PTCLDY    50  48  93 E6        30.27S
BIG FORK       CLEAR     48  46  93 CALM      30.29R
LONGVILLE      CLEAR     46  45  93 CALM      30.26S
GRAND RAPIDS   CLEAR     52  48  86 SE3       30.29F
ORR            CLEAR     52  46  82 CALM      30.28S
COOK           CLEAR     52  46  82 CALM      30.30S
WALKER         FOG       46  46  99 CALM      30.26S VSB 3/4
$$
MNZ012-019>021-037-010400-
   Northeast Minnesota

CITY           SKY/WX    TMP DP  RH WIND       PRES   REMARKS
DULUTH         FOG       51  51 100 E12       30.29S VSB 1/4
ELY            CLEAR     45  45 100 CALM      30.31S
HIBBING        CLEAR     46  45  96 CALM      30.29S
EVELETH        CLEAR     48  45  88 NE3       30.30F
DULUTH HARBOR  CLOUDY    54  52  94 NE13      30.30F
TWO HARBORS    CLOUDY    54  48  82 E3        30.28S HAZE
SILVER BAY     CLEAR     54  50  87 NE5       30.28F
GRAND MARAIS     N/A     58  44  60 NE5       30.30F
G MARAIS ARPRT CLEAR     46  39  76 N5        30.33F
$$
MNZ029>031-032-039>041-046>048-054>057-064-010400-
   West Central Minnesota

CITY           SKY/WX    TMP DP  RH WIND       PRES   REMARKS
FERGUS FALLS   CLOUDY    57  48  72 E3        30.23S
MORRIS         CLEAR     52  46  82 E7        30.20F
ALEXANDRIA     CLEAR     56  50  80 E5        30.23F
ELBOW LAKE     FAIR      55  50  82 SE7       30.21F
WADENA         CLEAR     54  46  76 E5        30.23S
GLENWOOD       CLEAR     52  46  82 NE6       30.23S
BENSON         CLEAR     54  46  76 E3        30.21S
ORTONVILLE     PTCLDY    55  46  71 CALM      30.19S
MADISON        CLEAR     54  46  76 E6        30.20S
WILLMAR        FAIR      55  48  76 E5        30.22F
$$
MNZ033>034-036-042>043-049>051-058-059-010400-
   Central Minnesota

CITY           SKY/WX    TMP DP  RH WIND       PRES   REMARKS
ST CLOUD       CLEAR     56  53  90 N3        30.24R
SAUK CENTRE    FAIR      50  48  92 CALM      30.23S
PAYNESVILLE    CLEAR     52  52 100 CALM      30.23S
AITKIN         CLOUDY    54  48  82 E3        30.26S
PINE RIVER     CLEAR     50  45  81 CALM      30.28S
BRAINERD       CLEAR     52  48  86 E5        30.26S
STAPLES        CLEAR     50  46  87 E3        30.24S
LONG PRAIRIE   FAIR      52  46  82 N3        30.23F
LITTLE FALLS   CLEAR     54  46  76 E5        30.24S
LITCHFIELD     CLEAR     55  52  88 E3        30.22F
BUFFALO        CLEAR     58  50  76 NE6       30.23S
MAPLE LAKE     CLEAR     57  53  85 NE6       30.23S
HUTCHINSON     PTCLDY    55  51  85 NE3       30.22S
$$
MNZ037-044-045-052-053-010400-
   East Central Minnesota

CITY           SKY/WX    TMP DP  RH WIND       PRES   REMARKS
PRINCETON      CLEAR     55  52  88 NE3       30.24F
MORA           CLOUDY    50  48  93 E5        30.27F
CAMBRIDGE      CLEAR     57  48  72 N3        30.23S
MOOSE LAKE     CLOUDY    52  50  93 NE5       30.26F
HINCKLEY       CLOUDY    54  52  94 NE6       30.26S
CLOQUET        CLOUDY    52  48  87 E7        30.29S FOG
MCGREGOR       CLOUDY    52  50  93 E7        30.28S
$$
MNZ071>073-080-081-089-090-097-098-010400-
   Southwest Minnesota

CITY           SKY/WX    TMP DP  RH WIND       PRES   REMARKS
MONTEVIDEO     CLEAR     54  46  76 SE6       30.22S
GRANITE FALLS  CLEAR     58  48  71 E5        30.21F
CANBY          PTCLDY    50  46  84 CALM      30.21S
MARSHALL       CLEAR     56  47  71 SE5       30.20S
REDWOOD FALLS  CLEAR     60  49  66 E8        30.20S
OLIVIA         CLEAR     54  46  76 CALM      30.20S
PIPESTONE      CLEAR     57  46  67 E3        30.19S
WINDOM         MOCLDY    55  52  88 NE7       30.20S
WORTHINGTON    CLEAR     54  49  83 E6        30.20S
JACKSON        CLOUDY    63  50  63 NE3       30.20S
TRACY          CLEAR     54  49  82 CALM      30.21R
SLAYTON        CLEAR     57  50  77 E7        30.21R
$$
MNZ065>067-074>077-082>085-091>093-010400-
   South Central Minnesota

CITY           SKY/WX    TMP DP  RH WIND       PRES   REMARKS
MANKATO        CLOUDY    62  52  69 NE6       30.20S
NEW ULM        CLEAR     61  48  63 NE5       30.20S
ST JAMES       CLOUDY    61  52  72 NE6       30.20S
FAIRMONT       CLOUDY    64  53  67 NE7       30.19S
GLENCOE        CLEAR     57  53  86 CALM      30.21S
FARIBAULT      CLOUDY    61  55  82 CALM      30.20S
OWATONNA       CLOUDY    63  54  72 CALM      30.19F
WASECA         CLOUDY    63  52  67 CALM      30.21S
ALBERT LEA     CLOUDY    64  55  72 CALM      30.19S
$$
MNZ078>079-086>088-094>096-010400-
   Southeast Minnesota

CITY           SKY/WX    TMP DP  RH WIND       PRES   REMARKS
ROCHESTER      CLOUDY    61  56  83 SE3       30.20S
RED WING       CLOUDY    63  52  67 CALM      30.17F
DODGE CENTER   CLOUDY    63  54  72 CALM      30.19S
WINONA         CLOUDY    61  57  88 CALM      30.19R
AUSTIN         CLOUDY    61  55  82 CALM      30.18F
PRESTON        CLOUDY    59  54  83 NE3       30.19S
$$
ABBREVIATIONS USED IN REMARKS
   TC - TEMPERATURES IN CELSIUS
  WCI - WIND CHILL INDEX
   HX - HEAT INDEX
  VSB - VISIBILITY
$$




USA.gov is the U.S. government's official web portal to all federal, state and local government web resources and services.